Location: Sternwarte auf dem Internationalen Platz Vogelsang IP
(50.5721°N, 6.4398°E)
Time: 21:45:59
(UTC+01:00)

Transit 2A Rocket - Pass Details

Date: 15 December 2025
Orbit: 581 x 903 km, 66.7° (Epoch: 12 January)

Event Time Altitude Azimuth Distance (km) Brightness Sun altitude
Rises 08:21:37 0° 199° (SSW) 3,296 8.5 -1.8°
Reaches altitude 10° 08:24:00 10° 195° (SSW) 2,414 7.9 -1.5°
Maximum altitude 08:29:28 55° 119° (ESE) 1,038 6.3 -0.8°
Drops below altitude 10° 08:35:18 10° 43° (NE) 2,572 7.8 0.0°
Sets 08:37:54 0° 40° (NE) 3,530 8.4 0.3°
